Retour au catalogue

FENGYUN 1C DEB

ActifPO
NORAD 32366·DEBRIS·🇨🇳 China

Lancé May 10, 1999 depuis Taiyuan Satellite Launch Center

Loading…

Prochains Passages (prochaines 24 heures)

TLE

FraisSource: Space-Track

Époque: Sep 11, 2026, 10:17 UTC

1 32366U 99025CZK 26254.42871561  .00001696  00000-0  81467-3 0  9999
2 32366  96.7745 316.4621 0132576 168.0149 192.4238 14.15201917970596

Suivez FENGYUN 1C DEB en temps réel avec AllMySat

Download on the App Store